| time (UTC) | temp C | wind direction | speed KPH | gust KPH | rain 1hr cm | rain 24hr cm | rain mn cm | humidity % | barometer mb |
| 20260505004141 | 19 | 151 | 0.0 | 0.0 | 0.00 | 0.00 | 0.00 | 68 | 1012.4 |
| 20260505003638 | 20 | 148 | 0.0 | 0.0 | 0.00 | 0.00 | 0.00 | 67 | 1012.5 |
| 20260505003136 | 20 | 148 | 0.0 | 0.0 | 0.00 | 0.00 | 0.00 | 66 | 1012.6 |
| 20260505002632 | 20 | 148 | 0.0 | 0.0 | 0.00 | 0.00 | 0.00 | 63 | 1012.3 |
| 20260505002130 | 20 | 149 | 0.0 | 0.0 | 0.00 | 0.00 | 0.00 | 61 | 1012.3 |
| 20260505001627 | 21 | 149 | 0.0 | 0.0 | 0.00 | 0.00 | 0.00 | 60 | 1012.3 |
| 20260505001125 | 21 | 150 | 0.0 | 0.0 | 0.00 | 0.00 | 0.00 | 61 | 1012.2 |
| 20260505000621 | 21 | 150 | 0.0 | 0.0 | 0.00 | 0.00 | 0.00 | 61 | 1012.3 |
| 20260505000119 | 22 | 151 | 0.0 | 0.0 | 0.00 | 0.00 | 0.00 | 56 | 1012.2 |
| 20260504235615 | 22 | 181 | 0.0 | 0.0 | 0.00 | 0.00 | 0.00 | 57 | 1012.3 |
| 20260504235112 | 22 | 180 | 0.0 | 0.0 | 0.00 | 0.00 | 0.00 | 55 | 1012.4 |
| 20260504234609 | 22 | 160 | 0.0 | 0.0 | 0.00 | 0.00 | 0.00 | 53 | 1012.2 |
| 20260504234106 | 23 | 182 | 0.0 | 0.0 | 0.00 | 0.00 | 0.00 | 51 | 1012.4 |
| 20260504233602 | 23 | 182 | 0.0 | 0.0 | 0.00 | 0.00 | 0.00 | 50 | 1012.3 |
| 20260504233058 | 23 | 179 | 0.0 | 0.0 | 0.00 | 0.00 | 0.00 | 46 | 1012.1 |
| 20260504232556 | 23 | 196 | 0.0 | 0.0 | 0.00 | 0.00 | 0.00 | 47 | 1012.2 |
| 20260504232053 | 23 | 192 | 0.0 | 0.0 | 0.00 | 0.00 | 0.00 | 48 | 1012.3 |
| 20260504231549 | 23 | 195 | 0.0 | 1.6 | 0.00 | 0.00 | 0.00 | 48 | 1012.3 |
| 20260504231045 | 24 | 183 | 0.0 | 0.0 | 0.00 | 0.00 | 0.00 | 47 | 1012.3 |
| 20260504230542 | 24 | 188 | 4.8 | 8.0 | 0.00 | 0.00 | 0.00 | 46 | 1012.4 |
| 20260504230041 | 24 | 186 | 0.0 | 0.0 | 0.00 | 0.00 | 0.00 | 47 | 1012.5 |
| 20260504225538 | 24 | 189 | 3.2 | 8.0 | 0.00 | 0.00 | 0.00 | 45 | 1012.6 |
| 20260504225035 | 25 | 161 | 1.6 | 3.2 | 0.00 | 0.00 | 0.00 | 45 | 1012.5 |
| 20260504224531 | 25 | 190 | 0.0 | 0.0 | 0.00 | 0.00 | 0.00 | 47 | 1012.6 |
| 20260504224029 | 25 | 178 | 0.0 | 0.0 | 0.00 | 0.00 | 0.00 | 44 | 1012.6 |
| 20260504223525 | 25 | 201 | 0.0 | 0.0 | 0.00 | 0.00 | 0.00 | 44 | 1012.9 |
| 20260504223021 | 25 | 196 | 4.8 | 8.0 | 0.00 | 0.00 | 0.00 | 43 | 1012.7 |
| 20260504222518 | 25 | 176 | 0.0 | 0.0 | 0.00 | 0.00 | 0.00 | 44 | 1012.9 |
| 20260504222016 | 26 | 188 | 3.2 | 3.2 | 0.00 | 0.00 | 0.00 | 41 | 1012.9 |
| 20260504221513 | 26 | 196 | 0.0 | 0.0 | 0.00 | 0.00 | 0.00 | 41 | 1012.8 |
| 20260504221010 | 26 | 195 | 0.0 | 0.0 | 0.00 | 0.00 | 0.00 | 43 | 1013.0 |
| 20260504220506 | 25 | 201 | 1.6 | 1.6 | 0.00 | 0.00 | 0.00 | 42 | 1013.1 |
| 20260504220003 | 25 | 188 | 0.0 | 0.0 | 0.00 | 0.00 | 0.00 | 42 | 1013.0 |
| 20260504215459 | 26 | 191 | 4.8 | 4.8 | 0.00 | 0.00 | 0.00 | 40 | 1012.9 |
| 20260504214956 | 26 | 201 | 1.6 | 4.8 | 0.00 | 0.00 | 0.00 | 40 | 1012.9 |
| 20260504214453 | 26 | 141 | 1.6 | 1.6 | 0.00 | 0.00 | 0.00 | 41 | 1012.9 |
| 20260504213949 | 26 | 196 | 0.0 | 1.6 | 0.00 | 0.00 | 0.00 | 42 | 1013.1 |
| 20260504213445 | 26 | 175 | 0.0 | 0.0 | 0.00 | 0.00 | 0.00 | 42 | 1012.9 |
| 20260504212943 | 26 | 197 | 0.0 | 0.0 | 0.00 | 0.00 | 0.00 | 42 | 1013.0 |
| 20260504212438 | 26 | 240 | 3.2 | 8.0 | 0.00 | 0.00 | 0.00 | 43 | 1013.2 |
| 20260504211937 | 26 | 222 | 0.0 | 0.0 | 0.00 | 0.00 | 0.00 | 42 | 1013.1 |
| 20260504211433 | 26 | 134 | 0.0 | 0.0 | 0.00 | 0.00 | 0.00 | 41 | 1013.3 |
| 20260504210931 | 26 | 241 | 1.6 | 3.2 | 0.00 | 0.00 | 0.00 | 40 | 1013.4 |
| 20260504210427 | 26 | 172 | 0.0 | 0.0 | 0.00 | 0.00 | 0.00 | 41 | 1013.5 |
| 20260504205924 | 26 | 186 | 0.0 | 1.6 | 0.00 | 0.00 | 0.00 | 41 | 1013.4 |
| 20260504205422 | 26 | 204 | 0.0 | 0.0 | 0.00 | 0.00 | 0.00 | 42 | 1013.5 |
| 20260504204920 | 26 | 125 | 0.0 | 0.0 | 0.00 | 0.00 | 0.00 | 43 | 1013.7 |
| 20260504204418 | 26 | 211 | 4.8 | 8.0 | 0.00 | 0.00 | 0.00 | 44 | 1013.5 |
| 20260504203917 | 26 | 153 | 1.6 | 3.2 | 0.00 | 0.00 | 0.00 | 43 | 1013.6 |
| 20260504203414 | 26 | 346 | 0.0 | 1.6 | 0.00 | 0.00 | 0.00 | 43 | 1013.5 |
| 20260504202909 | 26 | 195 | 1.6 | 4.8 | 0.00 | 0.00 | 0.00 | 44 | 1013.4 |
| 20260504202406 | 27 | 193 | 0.0 | 0.0 | 0.00 | 0.00 | 0.00 | 41 | 1013.8 |
| 20260504201903 | 26 | 122 | 0.0 | 0.0 | 0.00 | 0.00 | 0.00 | 48 | 1013.7 |
| 20260504201401 | 26 | 289 | 4.8 | 8.0 | 0.00 | 0.00 | 0.00 | 42 | 1013.9 |
| 20260504200858 | 27 | 248 | 3.2 | 4.8 | 0.00 | 0.00 | 0.00 | 42 | 1013.9 |
| 20260504200354 | 27 | 186 | 0.0 | 1.6 | 0.00 | 0.00 | 0.00 | 43 | 1013.6 |
| 20260504195851 | 26 | 297 | 1.6 | 1.6 | 0.00 | 0.00 | 0.00 | 46 | 1013.7 |
| 20260504195346 | 26 | 206 | 0.0 | 1.6 | 0.00 | 0.00 | 0.00 | 44 | 1013.6 |
| 20260504194843 | 26 | 210 | 0.0 | 1.6 | 0.00 | 0.00 | 0.00 | 46 | 1013.9 |
| 20260504194339 | 25 | 210 | 0.0 | 0.0 | 0.00 | 0.00 | 0.00 | 46 | 1014.1 |
| 20260504193836 | 26 | 217 | 1.6 | 3.2 | 0.00 | 0.00 | 0.00 | 45 | 1014.1 |
| 20260504193333 | 26 | 190 | 0.0 | 1.6 | 0.00 | 0.00 | 0.00 | 43 | 1014.2 |
| 20260504192832 | 26 | 214 | 0.0 | 0.0 | 0.00 | 0.00 | 0.00 | 44 | 1014.2 |
| 20260504192329 | 26 | 174 | 1.6 | 4.8 | 0.00 | 0.00 | 0.00 | 49 | 1014.3 |
| 20260504191827 | 26 | 247 | 3.2 | 3.2 | 0.00 | 0.00 | 0.00 | 45 | 1014.5 |
| 20260504191325 | 26 | 299 | 1.6 | 4.8 | 0.00 | 0.00 | 0.00 | 42 | 1014.6 |
| 20260504190820 | 26 | 193 | 0.0 | 0.0 | 0.00 | 0.00 | 0.00 | 48 | 1014.7 |
| 20260504190316 | 26 | 207 | 1.6 | 3.2 | 0.00 | 0.00 | 0.00 | 48 | 1014.6 |
| 20260504185813 | 26 | 194 | 1.6 | 3.2 | 0.00 | 0.00 | 0.00 | 45 | 1014.7 |
| 20260504185310 | 26 | 204 | 0.0 | 1.6 | 0.00 | 0.00 | 0.00 | 49 | 1014.6 |
| 20260504184806 | 26 | 182 | 0.0 | 0.0 | 0.00 | 0.00 | 0.00 | 44 | 1014.5 |
| 20260504184302 | 25 | 236 | 0.0 | 0.0 | 0.00 | 0.00 | 0.00 | 44 | 1014.6 |
| 20260504183758 | 26 | 212 | 1.6 | 1.6 | 0.00 | 0.00 | 0.00 | 46 | 1014.8 |
| 20260504183255 | 26 | 120 | 0.0 | 0.0 | 0.00 | 0.00 | 0.00 | 48 | 1014.9 |
| 20260504182753 | 26 | 182 | 0.0 | 0.0 | 0.00 | 0.00 | 0.00 | 45 | 1015.0 |
| 20260504182250 | 26 | 206 | 0.0 | 0.0 | 0.00 | 0.00 | 0.00 | 49 | 1014.9 |
| 20260504181748 | 25 | 205 | 0.0 | 0.0 | 0.00 | 0.00 | 0.00 | 52 | 1014.9 |
| 20260504181245 | 25 | 262 | 0.0 | 0.0 | 0.00 | 0.00 | 0.00 | 46 | 1015.1 |
| 20260504180744 | 25 | 220 | 0.0 | 0.0 | 0.00 | 0.00 | 0.00 | 53 | 1015.4 |
| 20260504180242 | 24 | 208 | 0.0 | 0.0 | 0.00 | 0.00 | 0.00 | 51 | 1015.4 |
| 20260504175739 | 25 | 256 | 0.0 | 1.6 | 0.00 | 0.00 | 0.00 | 50 | 1015.5 |
| 20260504175236 | 25 | 122 | 0.0 | 0.0 | 0.00 | 0.00 | 0.00 | 46 | 1015.4 |
| 20260504174734 | 25 | 208 | 0.0 | 0.0 | 0.00 | 0.00 | 0.00 | 50 | 1015.6 |
| 20260504174232 | 25 | 182 | 0.0 | 0.0 | 0.00 | 0.00 | 0.00 | 53 | 1015.5 |
| 20260504173727 | 25 | 270 | 0.0 | 0.0 | 0.00 | 0.00 | 0.00 | 51 | 1015.8 |
| 20260504173225 | 25 | 355 | 0.0 | 0.0 | 0.00 | 0.00 | 0.00 | 49 | 1015.8 |
| 20260504172721 | 23 | 25 | 1.6 | 3.2 | 0.00 | 0.00 | 0.00 | 50 | 1015.6 |
| 20260504172218 | 23 | 188 | 1.6 | 3.2 | 0.00 | 0.00 | 0.00 | 48 | 1015.8 |
| 20260504171714 | 23 | 220 | 0.0 | 0.0 | 0.00 | 0.00 | 0.00 | 52 | 1015.8 |
| 20260504171211 | 25 | 197 | 6.4 | 8.0 | 0.00 | 0.00 | 0.00 | 48 | 1015.9 |
| 20260504170708 | 24 | 165 | 0.0 | 0.0 | 0.00 | 0.00 | 0.00 | 50 | 1015.8 |
| 20260504170206 | 24 | 229 | 1.6 | 1.6 | 0.00 | 0.00 | 0.00 | 49 | 1016.0 |
| 20260504160124 | 23 | 351 | 0.0 | 0.0 | 0.00 | 0.00 | 0.00 | 57 | 1016.9 |
| 20260504151051 | 20 | 205 | 0.0 | 0.0 | 0.00 | 0.00 | 0.00 | 64 | 1016.9 |
| 20260504150549 | 19 | 170 | 0.0 | 0.0 | 0.00 | 0.00 | 0.00 | 66 | 1017.3 |
| 20260504141015 | 15 | 176 | 0.0 | 0.0 | 0.00 | 0.00 | 0.00 | 79 | 1017.5 |
| 20260504140511 | 14 | 151 | 0.0 | 0.0 | 0.00 | 0.00 | 0.00 | 80 | 1017.6 |
| 20260504130436 | 10 | 78 | 0.0 | 0.0 | 0.00 | 0.00 | 0.00 | 99 | 1017.9 |
| 20260504110323 | 5 | 114 | 0.0 | 0.0 | 0.00 | 0.00 | 0.00 | 99 | 1016.7 |
| 20260504100240 | 6 | 118 | 0.0 | 0.0 | 0.00 | 0.00 | 0.00 | 99 | 1016.8 |
| 20260504081634 | 6 | 117 | 0.0 | 0.0 | 0.00 | 0.00 | 0.00 | 99 | 1016.4 |
| 20260504081130 | 6 | 117 | 0.0 | 0.0 | 0.00 | 0.00 | 0.00 | 99 | 1016.4 |
| 20260504080626 | 6 | 112 | 0.0 | 0.0 | 0.00 | 0.00 | 0.00 | 99 | 1016.6 |
| 20260504080123 | 7 | 117 | 0.0 | 0.0 | 0.00 | 0.00 | 0.00 | 99 | 1016.7 |
| 20260504050439 | 8 | 118 | 0.0 | 0.0 | 0.00 | 0.00 | 0.00 | 99 | 1018.0 |
| 20260504045936 | 8 | 118 | 0.0 | 0.0 | 0.00 | 0.00 | 0.00 | 99 | 1017.9 |
| 20260504045432 | 8 | 118 | 0.0 | 0.0 | 0.00 | 0.00 | 0.00 | 99 | 1018.0 |
| 20260504044928 | 8 | 117 | 0.0 | 0.0 | 0.00 | 0.00 | 0.00 | 99 | 1018.1 |
| 20260504044426 | 8 | 116 | 0.0 | 0.0 | 0.00 | 0.00 | 0.00 | 98 | 1017.9 |
| 20260504043923 | 8 | 122 | 0.0 | 0.0 | 0.00 | 0.00 | 0.00 | 98 | 1018.0 |
| 20260504043420 | 8 | 122 | 0.0 | 0.0 | 0.00 | 0.00 | 0.00 | 98 | 1017.9 |
| 20260504042917 | 9 | 122 | 0.0 | 0.0 | 0.00 | 0.00 | 0.00 | 98 | 1018.0 |
| 20260504042414 | 9 | 123 | 0.0 | 0.0 | 0.00 | 0.00 | 0.00 | 98 | 1018.2 |
| 20260504041910 | 9 | 117 | 0.0 | 0.0 | 0.00 | 0.00 | 0.00 | 97 | 1018.2 |
| 20260504041407 | 9 | 117 | 0.0 | 0.0 | 0.00 | 0.00 | 0.00 | 97 | 1018.1 |
| 20260504040903 | 9 | 117 | 0.0 | 0.0 | 0.00 | 0.00 | 0.00 | 97 | 1018.1 |
| 20260504040400 | 9 | 117 | 0.0 | 0.0 | 0.00 | 0.00 | 0.00 | 96 | 1018.1 |
| 20260504035856 | 10 | 117 | 0.0 | 0.0 | 0.00 | 0.00 | 0.00 | 96 | 1018.1 |
| 20260504035354 | 10 | 118 | 0.0 | 0.0 | 0.00 | 0.00 | 0.00 | 95 | 1018.2 |
| 20260504034850 | 10 | 126 | 0.0 | 0.0 | 0.00 | 0.00 | 0.00 | 95 | 1018.2 |
| 20260504034348 | 10 | 120 | 0.0 | 0.0 | 0.00 | 0.00 | 0.00 | 94 | 1017.9 |
| 20260504033845 | 10 | 121 | 0.0 | 0.0 | 0.00 | 0.00 | 0.00 | 94 | 1018.4 |
| 20260504033343 | 10 | 122 | 0.0 | 0.0 | 0.00 | 0.00 | 0.00 | 93 | 1018.2 |
| 20260504032839 | 10 | 122 | 0.0 | 0.0 | 0.00 | 0.00 | 0.00 | 93 | 1018.3 |
| 20260504032336 | 10 | 122 | 0.0 | 0.0 | 0.00 | 0.00 | 0.00 | 92 | 1018.2 |
| 20260504031833 | 10 | 122 | 0.0 | 0.0 | 0.00 | 0.00 | 0.00 | 92 | 1018.4 |
| 20260504031330 | 10 | 154 | 0.0 | 0.0 | 0.00 | 0.00 | 0.00 | 91 | 1018.5 |
| 20260504030826 | 10 | 125 | 0.0 | 0.0 | 0.00 | 0.00 | 0.00 | 91 | 1018.5 |
| 20260504030324 | 10 | 127 | 0.0 | 0.0 | 0.00 | 0.00 | 0.00 | 91 | 1018.5 |
| 20260504025820 | 10 | 127 | 0.0 | 0.0 | 0.00 | 0.00 | 0.00 | 90 | 1018.3 |
| 20260504025317 | 11 | 123 | 0.0 | 0.0 | 0.00 | 0.00 | 0.00 | 90 | 1018.4 |
| 20260504024814 | 11 | 117 | 0.0 | 0.0 | 0.00 | 0.00 | 0.00 | 90 | 1018.6 |
| 20260504024310 | 11 | 122 | 0.0 | 0.0 | 0.00 | 0.00 | 0.00 | 89 | 1018.4 |
| 20260504023807 | 11 | 122 | 0.0 | 0.0 | 0.00 | 0.00 | 0.00 | 90 | 1018.4 |
| 20260504023303 | 11 | 121 | 0.0 | 0.0 | 0.00 | 0.00 | 0.00 | 90 | 1018.5 |
| 20260504022759 | 11 | 128 | 0.0 | 0.0 | 0.00 | 0.00 | 0.00 | 89 | 1018.3 |
| 20260504022256 | 11 | 134 | 0.0 | 0.0 | 0.00 | 0.00 | 0.00 | 88 | 1018.2 |
| 20260504021753 | 11 | 134 | 0.0 | 0.0 | 0.00 | 0.00 | 0.00 | 88 | 1018.0 |
| 20260504021251 | 11 | 134 | 0.0 | 0.0 | 0.00 | 0.00 | 0.00 | 87 | 1018.0 |
| 20260504020747 | 11 | 134 | 0.0 | 0.0 | 0.00 | 0.00 | 0.00 | 86 | 1018.0 |
| 20260504020243 | 12 | 134 | 0.0 | 0.0 | 0.00 | 0.00 | 0.00 | 86 | 1018.0 |
| 20260504015740 | 12 | 135 | 0.0 | 0.0 | 0.00 | 0.00 | 0.00 | 85 | 1018.1 |
| 20260504015237 | 12 | 154 | 0.0 | 0.0 | 0.00 | 0.00 | 0.00 | 83 | 1018.0 |
| 20260504014732 | 12 | 155 | 0.0 | 0.0 | 0.00 | 0.00 | 0.00 | 81 | 1017.9 |
| 20260504014229 | 12 | 155 | 0.0 | 0.0 | 0.00 | 0.00 | 0.00 | 81 | 1017.9 |
| 20260504013727 | 13 | 155 | 0.0 | 0.0 | 0.00 | 0.00 | 0.00 | 79 | 1017.8 |
| 20260504013224 | 13 | 155 | 0.0 | 0.0 | 0.00 | 0.00 | 0.00 | 78 | 1017.8 |
| 20260504012720 | 13 | 155 | 0.0 | 0.0 | 0.00 | 0.00 | 0.00 | 77 | 1017.6 |
| 20260504012219 | 13 | 155 | 0.0 | 0.0 | 0.00 | 0.00 | 0.00 | 77 | 1017.7 |
| 20260504011715 | 13 | 155 | 0.0 | 0.0 | 0.00 | 0.00 | 0.00 | 77 | 1017.7 |
| 20260504011212 | 14 | 155 | 0.0 | 0.0 | 0.00 | 0.00 | 0.00 | 77 | 1017.7 |
| 20260504010708 | 14 | 156 | 0.0 | 0.0 | 0.00 | 0.00 | 0.00 | 77 | 1017.6 |
| 20260504010204 | 14 | 153 | 0.0 | 0.0 | 0.00 | 0.00 | 0.00 | 76 | 1017.4 |
| 20260504005700 | 14 | 153 | 0.0 | 0.0 | 0.00 | 0.00 | 0.00 | 74 | 1017.5 |
| 20260504005157 | 15 | 153 | 0.0 | 0.0 | 0.00 | 0.00 | 0.00 | 72 | 1017.5 |
| 20260504004655 | 15 | 153 | 0.0 | 0.0 | 0.00 | 0.00 | 0.00 | 71 | 1017.4 |